Powrót do katalogu

FENGYUN 1C DEB

AktywnyPO
NORAD 36218·DEBRIS·🇨🇳 China

Wystrzelony May 10, 1999 z Taiyuan Satellite Launch Center

Loading…

Następne Przeloty (najbliższe 24 godziny)

TLE

ŚwieżeSource: Space-Track

Epoka: Sep 14, 2026, 02:40 UTC

1 36218U 99025DUT 26257.11166005  .00003331  00000-0  49799-3 0  9998
2 36218  99.0494 134.8954 0069019 159.3314 201.0707 14.73949016631968

Śledź FENGYUN 1C DEB w czasie rzeczywistym z AllMySat

Download on the App Store